This is the latest recevied weather packets stored in our database for station/object KN6ZYR. If no packets are shown the sender has not sent any weather packets the latest 10 day(s).
| Time | Temp. | Humidity | Pressure | Rain* | Wind** | Luminosity | Snow |
|---|---|---|---|---|---|---|---|
| 1777731038 | 8.89° C | 52% | 1021.4 hPa | 0 mm | - | 63 W/m² | - |
| 1777730737 | 8.33° C | 53% | 1021.3 hPa | 0 mm | - | 63 W/m² | - |
| 1777730433 | 8.33° C | 49% | 1021.2 hPa | 0 mm | - | 45 W/m² | - |
| 1777730128 | 8.33° C | 50% | 1021 hPa | 0 mm | - | 42 W/m² | - |
| 1777729826 | 8.33° C | 51% | 1021.2 hPa | 0 mm | - | 38 W/m² | - |
| 1777729522 | 8.33° C | 50% | 1021 hPa | 0 mm | - | 35 W/m² | - |
| 1777729219 | 7.78° C | 52% | 1021 hPa | 0 mm | - | 33 W/m² | - |
| 1777728916 | 7.78° C | 52% | 1021 hPa | 0 mm | - | 29 W/m² | - |
| 1777728613 | 7.22° C | 52% | 1020.9 hPa | 0 mm | - | 25 W/m² | - |
| 1777728310 | 7.22° C | 55% | 1020.9 hPa | 0 mm | - | 21 W/m² | - |
| 1777728007 | 6.67° C | 58% | 1020.8 hPa | 0 mm | - | 17 W/m² | - |
| 1777727704 | 6.67° C | 60% | 1020.5 hPa | 0 mm | - | 12 W/m² | - |
| 1777727400 | 7.22° C | 53% | 1020.8 hPa | 0 mm | - | 8 W/m² | - |
| 1777727098 | 7.78° C | 52% | 1020.8 hPa | 0 mm | - | 5 W/m² | - |
| 1777726796 | 7.78° C | 52% | 1020.7 hPa | 0 mm | - | 3 W/m² | - |
| 1777726492 | 7.78° C | 52% | 1020.8 hPa | 0 mm | - | 2 W/m² | - |
| 1777726189 | 7.78° C | 52% | 1020.7 hPa | 0 mm | - | 1 W/m² | - |
| 1777725886 | 7.78° C | 52% | 1020.7 hPa | 0 mm | - | 0 W/m² | - |
| 1777725584 | 7.78° C | 52% | 1020.8 hPa | 0 mm | - | 0 W/m² | - |
| 1777725281 | 7.78° C | 53% | 1020.8 hPa | 0 mm | - | 0 W/m² | - |
| 1777724978 | 7.22° C | 53% | 1020.7 hPa | 0 mm | - | 0 W/m² | - |
| 1777724673 | 7.22° C | 55% | 1020.6 hPa | 0 mm | - | 0 W/m² | - |
| 1777724372 | 7.22° C | 53% | 1020.7 hPa | 0 mm | - | 0 W/m² | - |
| 1777724069 | 7.78° C | 53% | 1020.5 hPa | 0 mm | - | 0 W/m² | - |
| 1777723767 | 7.78° C | 53% | 1020.7 hPa | 0 mm | - | 0 W/m² | - |
* Rain latest hour (hover to see other rain measurements)
** Current wind speed in m/s (hover to see current wind gust speed)